Skip Page Navigation
NASA JPL Caltech
NASA Logo - Jet Propulsion Laboratory + View the NASA Portal
+ Center for Near-Earth Object Studies
JPL Home Earth Solar System Stars & Galaxies Technology
JPL Solar System Dynamics
BODIES ORBITS EPHEMERIDES TOOLS PHYSICAL DATA DISCOVERY FAQ SITE MAP
IMPORTANT: The SSD Announcement email list is now available. Major changes are coming in the near future, including possible hostname and/or URL changes. To be notified of such changes, subscribe to this email list.

Please visit this page for more details.


JPL Small-Body Database Browser
Search: [ help ]  
58244 (1993 OX5)
Classification: Main-belt Asteroid          SPK-ID: 2058244
Ephemeris | Orbit Diagram | Orbital Elements | Mission Design | Physical Parameters | Discovery Circumstances | Close-Approach Data ]

[ show orbit diagram ]
Orbital Elements at Epoch 2458600.5 (2019-Apr-27.0) TDB
Reference: JPL 26 (heliocentric ecliptic J2000)
 Element Value Uncertainty (1-sigma)   Units 
e .09992984697932969 3.6174e-08  
a 2.338438877866622 9.5609e-09 au
q 2.104759038630895 8.5873e-08 au
i 5.214658802420313 4.4569e-06 deg
node 284.3720162768035 4.3004e-05 deg
peri 134.3590727200145 4.8364e-05 deg
M 323.9179953316896 2.2394e-05 deg
tp 2458731.410842747124
(2019-Sep-04.91084275)
8.1441e-05 TDB
period 1306.13317697271
3.58
8.0103e-06
2.193e-08
d
yr
n .2756227361396562 1.6904e-09 deg/d
Q 2.572118717102349 1.0516e-08 au
  Orbit Determination Parameters
   # obs. used (total)      1171  
   data-arc span      9643 days (26.40 yr)  
   first obs. used      1993-07-13  
   last obs. used      2019-12-07  
   planetary ephem.      DE431  
   SB-pert. ephem.      SB431-N16  
   condition code      0  
   norm. resid. RMS      .519  
   source      ORB  
   producer      Otto Matic  
   solution date      2019-Dec-14 05:59:41  

Additional Information
 Earth MOID = 1.12088 au 
 Jupiter MOID = 2.68837 au 
 T_jup = 3.554 
[ show covariance matrix ]

Ephemeris | Orbit Diagram | Orbital Elements | Mission Design | Physical Parameters | Discovery Circumstances | Close-Approach Data ]

Physical Parameter Table
Parameter Symbol Value Units Sigma Reference Notes
absolute magnitude H 14.9   n/a MPO439476  
diameter diameter 2.408 km 0.214 urn:nasa:pds:neowise_diameters_albedos::2.0[mainbelt] (http://adsabs.harvard.edu/abs/2011ApJ...741...68M)  
geometric albedo albedo 0.278   0.153 urn:nasa:pds:neowise_diameters_albedos::2.0[mainbelt] (http://adsabs.harvard.edu/abs/2011ApJ...741...68M)  

58244 (1993 OX5)          Discovered 1993-Jul-20 by Elst, E. W. at La Silla
Reference: 20030614/Numbers.arcLast Updated: 2004-04-19

[ show close-approach data ]
Alternate Designations
 1993 OX5 = 1999 FC40 
Ephemeris | Orbit Diagram | Orbital Elements | Mission Design | Physical Parameters | Discovery Circumstances | Close-Approach Data ]
ABOUT SSD CREDITS/AWARDS PRIVACY/COPYRIGHT GLOSSARY LINKS
FirstGov 2020-Jan-26 03:34 UT
(server date/time)  
NASA Home Page
Site Manager:   Ryan S. Park
Webmaster  Alan B. Chamberlin